FW1341 Weather Reports


time (UTC)temp
F
wind
direction
speed
knots
gust
knots
rain 1hr
in
rain 24hr
in
rain mn
in
humidity
%
barometer
mb
20260505065435 64 212 0.0 2.6 0.00 0.00 0.00 59 1007.8
20260505064935 64 159 0.0 2.6 0.00 0.00 0.00 58 1007.9
20260505063935 64 211 0.9 5.2 0.00 0.00 0.00 57 1007.7
20260505063435 64 201 0.9 5.2 0.00 0.00 0.00 58 1007.7
20260505062934 64 194 0.0 1.7 0.00 0.00 0.00 58 1007.8
20260505062435 63 232 0.0 1.7 0.00 0.00 0.00 58 1007.8
20260505061929 64 199 0.0 0.0 0.00 0.00 0.00 58 1007.7
20260505061429 64 194 0.0 0.9 0.00 0.00 0.00 58 1007.7
20260505060929 64 197 0.0 0.9 0.00 0.00 0.00 58 1007.8
20260505060431 64 203 0.0 0.9 0.00 0.00 0.00 58 1007.7
20260505055928 64 203 0.0 0.9 0.00 0.00 0.00 57 1007.7
20260505054420 64 198 0.0 0.9 0.00 0.00 0.00 57 1007.8
20260505052918 65 188 0.0 2.6 0.00 0.00 0.00 56 1007.9
20260505051914 65 205 0.9 2.6 0.00 0.00 0.00 56 1007.9
20260505051414 65 191 0.0 2.6 0.00 0.00 0.00 56 1007.8
20260505050912 65 162 0.0 0.9 0.00 0.00 0.00 56 1007.9
20260505050410 66 143 0.9 3.5 0.00 0.00 0.00 56 1007.9
20260505041354 67 228 0.9 4.3 0.00 0.00 0.00 53 1007.9
20260505040855 67 203 0.0 4.3 0.00 0.00 0.00 53 1007.9
20260505040354 67 207 0.0 0.9 0.00 0.00 0.00 52 1007.9
20260505035854 67 208 0.0 0.9 0.00 0.00 0.00 52 1007.8
20260505035347 67 210 0.0 1.7 0.00 0.00 0.00 52 1007.8
20260505033849 68 212 0.0 2.6 0.00 0.00 0.00 51 1007.7
20260505033348 68 201 0.0 4.3 0.00 0.00 0.00 51 1007.7
20260505032847 68 190 0.9 5.2 0.00 0.00 0.00 50 1007.8
20260505032346 69 222 0.9 5.2 0.00 0.00 0.00 50 1007.7
20260505031841 69 211 0.9 4.3 0.00 0.00 0.00 49 1007.7
20260505030844 69 297 0.9 5.2 0.00 0.00 0.00 49 1007.7
20260505030341 69 217 1.7 5.2 0.00 0.00 0.00 48 1007.7
20260505025840 69 204 1.7 5.2 0.00 0.00 0.00 48 1007.7
20260505025335 69 186 2.6 6.1 0.00 0.00 0.00 48 1007.6
20260505024335 70 207 1.7 6.1 0.00 0.00 0.00 48 1007.7
20260505023835 70 187 1.7 6.1 0.00 0.00 0.00 48 1007.7
20260505022836 70 204 1.7 6.1 0.00 0.00 0.00 47 1007.6
20260505022329 70 218 0.9 5.2 0.00 0.00 0.00 47 1007.7
20260505021830 70 186 0.9 5.2 0.00 0.00 0.00 47 1007.6
20260505020829 70 269 2.6 7.8 0.00 0.00 0.00 46 1007.4
20260505020329 71 215 1.7 7.8 0.00 0.00 0.00 46 1007.5
20260505015829 71 198 2.6 8.7 0.00 0.00 0.00 45 1007.6
20260505015324 71 187 2.6 8.7 0.00 0.00 0.00 45 1007.5
20260505014825 71 219 1.7 7.8 0.00 0.00 0.00 44 1007.4
20260505014324 71 210 2.6 7.8 0.00 0.00 0.00 44 1007.4
20260505013824 71 201 2.6 7.8 0.00 0.00 0.00 44 1007.2
20260505012823 71 191 2.6 7.0 0.00 0.00 0.00 44 1007.2
20260505012325 71 268 1.7 4.3 0.00 0.00 0.00 44 1007.1
20260505011822 71 205 1.7 5.2 0.00 0.00 0.00 44 1007.0
20260505011322 71 212 0.9 6.1 0.00 0.00 0.00 44 1007.1
20260505010323 72 162 0.9 5.2 0.00 0.00 0.00 44 1007.0
20260505005823 72 203 0.0 2.6 0.00 0.00 0.00 44 1007.0
20260505005323 72 208 0.0 1.7 0.00 0.00 0.00 44 1006.9
20260505004823 72 204 0.9 4.3 0.00 0.00 0.00 44 1006.9
20260505004317 73 192 1.7 7.8 0.00 0.00 0.00 43 1006.8
20260505003817 73 225 2.6 7.8 0.00 0.00 0.00 43 1006.8
20260505003316 73 156 2.6 7.8 0.00 0.00 0.00 43 1006.8
20260505001317 74 226 2.6 7.0 0.00 0.00 0.00 41 1006.7
20260505000810 74 172 3.5 8.7 0.00 0.00 0.00 41 1006.7
20260504235809 74 216 2.6 9.6 0.00 0.00 0.00 41 1006.7
20260504234811 74 183 2.6 7.0 0.00 0.00 0.00 40 1006.6
20260504234312 74 197 2.6 7.0 0.00 0.00 0.00 40 1006.6
20260504233812 75 188 3.5 7.8 0.00 0.00 0.00 39 1006.6
20260504233306 75 212 4.3 8.7 0.00 0.00 0.00 39 1006.5
20260504232304 76 203 2.6 11.3 0.00 0.00 0.00 37 1006.5
20260504231803 76 158 2.6 7.8 0.00 0.00 0.00 36 1006.4
20260504231302 76 236 3.5 10.4 0.00 0.00 0.00 36 1006.4
20260504230802 76 139 5.2 12.2 0.00 0.00 0.00 36 1006.4
20260504230255 76 195 4.3 12.2 0.00 0.00 0.00 35 1006.4
20260504225756 76 206 4.3 12.2 0.00 0.00 0.00 35 1006.4
20260504224755 77 224 4.3 11.3 0.00 0.00 0.00 35 1006.5
20260504224254 77 211 4.3 11.3 0.00 0.00 0.00 35 1006.6
20260504223255 77 217 5.2 13.0 0.00 0.00 0.00 35 1006.5
20260504222749 77 217 6.1 13.0 0.00 0.00 0.00 35 1006.5
20260504222250 77 233 7.0 13.0 0.00 0.00 0.00 34 1006.4
20260504221749 77 210 7.0 13.0 0.00 0.00 0.00 34 1006.5
20260504221248 77 210 5.2 13.0 0.00 0.00 0.00 34 1006.5
20260504220749 77 191 6.1 13.0 0.00 0.00 0.00 33 1006.6
20260504215749 78 186 5.2 12.2 0.00 0.00 0.00 33 1006.6
20260504214743 78 226 6.1 15.6 0.00 0.00 0.00 33 1006.5
20260504214243 78 204 5.2 15.6 0.00 0.00 0.00 32 1006.5
20260504213741 78 249 5.2 15.6 0.00 0.00 0.00 32 1006.4
20260504212743 78 204 4.3 13.0 0.00 0.00 0.00 31 1006.5
20260504212243 78 167 4.3 11.3 0.00 0.00 0.00 31 1006.5
20260504211737 78 212 5.2 16.5 0.00 0.00 0.00 31 1006.5
20260504211236 78 197 5.2 15.6 0.00 0.00 0.00 31 1006.5
20260504210735 78 211 4.3 15.6 0.00 0.00 0.00 31 1006.4
20260504210236 78 257 6.1 13.9 0.00 0.00 0.00 31 1006.4
20260504205736 78 231 6.1 13.9 0.00 0.00 0.00 31 1006.5
20260504205238 78 225 5.2 13.0 0.00 0.00 0.00 31 1006.5
20260504204234 78 189 5.2 12.2 0.00 0.00 0.00 30 1006.4
20260504203232 78 204 4.3 13.0 0.00 0.00 0.00 30 1006.6
20260504202732 78 165 4.3 15.6 0.00 0.00 0.00 31 1006.7
20260504201234 78 225 5.2 16.5 0.00 0.00 0.00 31 1006.9
20260504200727 78 186 5.2 15.6 0.00 0.00 0.00 31 1007.0
20260504200226 78 235 6.1 13.9 0.00 0.00 0.00 31 1007.0
20260504195227 78 205 4.3 14.8 0.00 0.00 0.00 30 1007.0
20260504194725 78 203 4.3 13.9 0.00 0.00 0.00 30 1007.1
20260504194226 78 201 4.3 11.3 0.00 0.00 0.00 31 1007.2
20260504193726 78 200 5.2 12.2 0.00 0.00 0.00 31 1007.3
20260504193228 77 160 4.3 12.2 0.00 0.00 0.00 31 1007.3
20260504192725 77 252 4.3 12.2 0.00 0.00 0.00 32 1007.4
20260504192226 77 195 4.3 12.2 0.00 0.00 0.00 31 1007.7
20260504191725 77 177 5.2 13.0 0.00 0.00 0.00 32 1007.8
20260504191224 77 203 6.1 13.0 0.00 0.00 0.00 32 1007.9
20260504190723 77 173 4.3 11.3 0.00 0.00 0.00 31 1008.0
20260504190224 77 173 3.5 11.3 0.00 0.00 0.00 31 1008.1
20260504185725 77 136 3.5 11.3 0.00 0.00 0.00 31 1008.2
20260504185225 77 148 4.3 11.3 0.00 0.00 0.00 31 1008.3
20260504184717 76 198 5.2 13.0 0.00 0.00 0.00 32 1008.3
20260504184219 76 212 5.2 13.0 0.00 0.00 0.00 32 1008.4
20260504183718 76 163 3.5 12.2 0.00 0.00 0.00 33 1008.4
20260504183219 76 195 3.5 10.4 0.00 0.00 0.00 33 1008.5
20260504182719 76 210 5.2 11.3 0.00 0.00 0.00 33 1008.7
20260504182218 76 205 5.2 13.0 0.00 0.00 0.00 33 1008.7
20260504181719 75 214 5.2 13.0 0.00 0.00 0.00 33 1008.7
20260504181219 76 143 4.3 10.4 0.00 0.00 0.00 33 1008.9
20260504180719 75 179 5.2 12.2 0.00 0.00 0.00 33 1008.9
20260504180218 75 242 4.3 12.2 0.00 0.00 0.00 34 1008.9
20260504175720 76 204 3.5 7.8 0.00 0.00 0.00 33 1009.0
20260504175217 75 170 3.5 10.4 0.00 0.00 0.00 34 1009.1
20260504174718 75 224 4.3 10.4 0.00 0.00 0.00 34 1009.3
20260504174219 75 226 3.5 10.4 0.00 0.00 0.00 34 1009.2
20260504173218 74 214 3.5 12.2 0.00 0.00 0.00 35 1009.4
20260504172714 74 160 3.5 12.2 0.00 0.00 0.00 35 1009.4
20260504172214 74 287 5.2 13.0 0.00 0.00 0.00 35 1009.5
20260504171708 73 225 6.1 13.0 0.00 0.00 0.00 35 1009.6
20260504171203 73 194 4.3 11.3 0.00 0.00 0.00 35 1009.7
20260504170701 74 143 3.5 9.6 0.00 0.00 0.00 34 1009.8
20260504170201 73 207 4.3 9.6 0.00 0.00 0.00 35 1009.8
20260504160152 72 197 3.5 9.6 0.00 0.00 0.00 34 1010.4
20260504150647 69 279 1.7 6.1 0.00 0.00 0.00 40 1010.9
20260504150148 68 227 1.7 5.2 0.00 0.00 0.00 42 1011.0
20260504141146 64 187 0.9 5.2 0.00 0.00 0.00 45 1011.2
20260504140644 64 278 0.9 5.2 0.00 0.00 0.00 46 1011.3
20260504140143 64 198 1.7 6.1 0.00 0.00 0.00 46 1011.4
20260504130635 59 215 1.7 6.1 0.00 0.00 0.00 54 1011.8
20260504130135 59 174 1.7 7.8 0.00 0.00 0.00 54 1011.8
20260504120128 56 184 3.5 11.3 0.00 0.00 0.00 57 1012.0
20260504110624 53 203 1.7 7.0 0.00 0.00 0.00 60 1012.2
20260504110124 53 298 1.7 5.2 0.00 0.00 0.00 61 1012.3
20260504100116 54 195 0.0 3.5 0.00 0.00 0.00 60 1012.1
20260504090110 55 198 0.9 8.7 0.00 0.00 0.00 57 1012.3
20260504081557 54 210 1.7 5.2 0.00 0.00 0.00 55 1012.6
20260504081055 54 233 1.7 5.2 0.00 0.00 0.00 55 1012.5
20260504080555 54 248 1.7 6.1 0.00 0.00 0.00 55 1012.5